Lambert Lake Weather Center

Moon Phase Calendar



Lambert Lake Water Level
Online Cameras

 


      

Current Conditions in Buena Vista
3/7/2021 3:46:31 AM

39°F
Feels Like 31
Clear
Humidity
56%
Pressure
30.21"
Wind
4.6 mph (NNW)
Dew Point
25°F
UV Index
0/10 (Low)
Visibility
6 mi

Hourly Forecast

Date & Time Sun, Mar 7
3:00 AM
Sun, Mar 7
4:00 AM
Sun, Mar 7
5:00 AM
Sun, Mar 7
6:00 AM
Sun, Mar 7
7:00 AM
Sun, Mar 7
8:00 AM
Sun, Mar 7
9:00 AM
Sun, Mar 7
10:00 AM
Sun, Mar 7
11:00 AM
Sun, Mar 7
12:00 PM
Sun, Mar 7
1:00 PM
Sun, Mar 7
2:00 PM
Sun, Mar 7
3:00 PM
Sun, Mar 7
4:00 PM
Sun, Mar 7
5:00 PM
Sun, Mar 7
6:00 PM
Sun, Mar 7
7:00 PM
Sun, Mar 7
8:00 PM
Sun, Mar 7
9:00 PM
Sun, Mar 7
10:00 PM
Sun, Mar 7
11:00 PM
Mon, Mar 8
12:00 AM
Mon, Mar 8
1:00 AM
Mon, Mar 8
2:00 AM
Mon, Mar 8
3:00 AM
Mon, Mar 8
4:00 AM
Mon, Mar 8
5:00 AM
Mon, Mar 8
6:00 AM
Mon, Mar 8
7:00 AM
Mon, Mar 8
8:00 AM
Mon, Mar 8
9:00 AM
Mon, Mar 8
10:00 AM
Mon, Mar 8
11:00 AM
Mon, Mar 8
12:00 PM
Mon, Mar 8
1:00 PM
Mon, Mar 8
2:00 PM
Mon, Mar 8
3:00 PM
Mon, Mar 8
4:00 PM
Mon, Mar 8
5:00 PM
Mon, Mar 8
6:00 PM
Mon, Mar 8
7:00 PM
Mon, Mar 8
8:00 PM
Mon, Mar 8
9:00 PM
Mon, Mar 8
10:00 PM
Mon, Mar 8
11:00 PM
Tue, Mar 9
12:00 AM
Tue, Mar 9
1:00 AM
Tue, Mar 9
2:00 AM
Condition
Clear

Clear

Clear

Clear

Clear

Clear

Clear

Clear

Clear

Clear

Clear

Clear

Clear

Clear

Clear

Clear

Clear

Clear

Clear

Clear

Clear

Clear

Clear

Clear

Clear

Clear

Clear

Clear

Clear

Clear

Clear

Clear

Clear

Clear

Clear

Clear

Clear

Clear

Clear

Clear

Clear

Clear

Clear

Clouds

Clouds

Clouds

Clouds

Clear
Temperature 39°F39°F39°F38°F37°F40°F44°F49°F54°F57°F59°F61°F62°F62°F61°F57°F52°F50°F48°F47°F46°F45°F44°F44°F43°F42°F41°F40°F40°F43°F48°F53°F58°F61°F64°F66°F67°F66°F65°F61°F56°F54°F53°F52°F51°F50°F49°F48°F
Feels Like 31°F32°F31°F30°F30°F31°F35°F40°F45°F48°F51°F53°F54°F54°F53°F51°F46°F43°F41°F39°F39°F38°F38°F37°F37°F36°F35°F35°F34°F37°F42°F48°F53°F56°F59°F62°F63°F62°F60°F57°F51°F48°F47°F46°F45°F45°F44°F43°F
Cloudiness 1%1%0%0%0%0%0%0%0%0%0%0%0%0%0%0%0%0%0%0%0%0%0%0%0%0%0%0%0%0%0%0%0%0%0%0%0%0%0%0%0%0%0%25%31%34%28%0%
Visibility 6 mi6 mi6 mi6 mi6 mi6 mi6 mi6 mi6 mi6 mi6 mi6 mi6 mi6 mi6 mi6 mi6 mi6 mi6 mi6 mi6 mi6 mi6 mi6 mi6 mi6 mi6 mi6 mi6 mi6 mi6 mi6 mi6 mi6 mi6 mi6 mi6 mi6 mi6 mi6 mi6 mi6 mi6 mi6 mi6 mi6 mi6 mi6 mi
Precipitation 0%0%0%0%0%0%0%0%0%0%0%0%0%0%0%0%0%0%0%0%0%0%0%0%0%0%0%0%0%0%0%0%0%0%0%0%0%0%0%0%0%0%0%0%0%0%0%0%
Humidity 56%64%70%75%78%71%61%52%46%39%35%32%31%31%32%40%45%49%53%55%57%58%60%62%64%66%68%70%72%65%54%46%39%34%31%29%27%27%29%39%40%44%47%48%49%50%51%53%
Dew Point 25°F29°F30°F31°F31°F29°F32°F33°F34°F33°F31°F29°F29°F30°F30°F34°F30°F30°F30°F30°F30°F30°F30°F30°F30°F30°F30°F30°F30°F32°F32°F33°F33°F33°F33°F33°F33°F32°F31°F36°F32°F33°F33°F33°F33°F32°F32°F32°F
Pressure 30.21"30.24"30.27"30.33"30.33"30.36"30.39"30.39"30.39"30.39"30.39"30.36"30.33"30.33"30.33"30.36"30.42"30.45"30.45"30.45"30.47"30.47"30.47"30.47"30.47"30.47"30.47"30.5"30.53"30.56"30.59"30.56"30.56"30.56"30.53"30.5"30.5"30.47"30.47"30.47"30.5"30.5"30.53"30.53"30.53"30.53"30.53"30.53"
Wind Speed 4.9 mph5.8 mph6.5 mph6.4 mph6.4 mph8.6 mph9.5 mph9.7 mph9.8 mph9 mph8.2 mph7.3 mph7 mph7.2 mph7.3 mph5.7 mph4.6 mph5.8 mph6.5 mph5.9 mph5.8 mph5.5 mph4.9 mph4.6 mph4.6 mph4.3 mph4.1 mph3.6 mph3.6 mph3.6 mph4 mph3.4 mph3 mph2.9 mph2.7 mph1.8 mph1 mph1.3 mph1.2 mph1.4 mph2.4 mph3.9 mph4.4 mph4.4 mph3.6 mph3.1 mph3.3 mph2.4 mph
Wind
Direction
353°
N
353°
N
353°
N
354°
N

N
18°
NNE
36°
NE
42°
NE
41°
NE
41°
NE
31°
NNE
19°
NNE
16°
NNE

N

N

N
353°
N
347°
NNW
359°
N

N
12°
NNE
26°
NNE
23°
NNE
26°
NNE
35°
NE
31°
NNE
32°
NNE
28°
NNE
35°
NE
26°
NNE
24°
NNE
50°
NE
98°
E
111°
ESE
131°
SE
142°
SE
143°
SE
162°
SSE
151°
SSE
130°
SE
126°
SE
138°
SE
148°
SSE
157°
SSE
168°
SSE
166°
SSE
171°
S
170°
S

Daily Forecast

Date High Low Precip. Humidity
Today
Mar 7

Clear
62 °F
37 °F
0%
39%
Monday
Mar 8

Clear
67 °F
40 °F
0%
34%
Tuesday
Mar 9

Clouds
66 °F
44 °F
0%
29%
Wednesday
Mar 10

Clear
69 °F
45 °F
0%
38%
Thursday
Mar 11

Clouds
72 °F
50 °F
0%
45%
Friday
Mar 12

Clouds
77 °F
53 °F
0%
48%
Saturday
Mar 13

Clouds
78 °F
57 °F
0%
49%
Sunday
Mar 14

Rain
79 °F
57 °F
61%
49%
Monday
Mar 15

Rain
73 °F
55 °F
92%
38%
Tuesday
Mar 16

Clouds
78 °F
49 °F
0%
21%
Wednesday
Mar 17

Rain
78 °F
54 °F
25%
50%
Thursday
Mar 18

Rain
65 °F
53 °F
100%
45%
Friday
Mar 19

Clouds
64 °F
43 °F
0%
31%
Saturday
Mar 20

Clouds
70 °F
44 °F
0%
28%
Sunday
Mar 21

Rain
68 °F
59 °F
100%
91%
Monday
Mar 22

Rain
65 °F
57 °F
100%
89%


Temperature 8-14 Day Outlook



Precipitation 8-14 Day Outlook




Quick Links
Lambert Lake News
Lambert Lake Photos
Lambert Lake Videos




About Us
Contact Us
Site Map
Search Site
Advertise With Us
   
Lambert.LakesOnline.com
THE LAMBERT LAKE WEBSITE

Copyright 2021, Lakes Online
Privacy    |    Legal